[[{"header":{"parameterUnit":"m.s-1","parameterCategory":1,"la1":30.2991,"la2":30.254,"lo1":-89.0895,"lo2":-89.0444,"dy":0.0017,"dx":0.0017,"nx":28,"ny":28,"refTime":"2023-10-16T21:00:00:Z","depth":0,"parameterNumber":2,"parameterNumberName":"U-component_of_WINDS"},"data":[0,0,0,0,0,0,0,0,0,0,0,0,0,0,0,0,0,0,0,0,0,0,0,0,0,0,0,0,0,0,0,0,0,0,0,0,0,0,0,0,0,0,0,0,0,0,0,0,0,0,0,0,0,0,0,0,0,0,-1.5251,-1.5251,0,-1.5258,-1.5258,-1.5258,-1.525,-1.525,-1.5249,-1.5249,-1.5257,-1.5258,-1.5258,0,0,0,0,0,0,0,0,0,0,0,0,0,-1.5234,-1.5234,-1.5251,-1.5251,-1.5251,-1.5258,-1.5258,-1.5258,-1.525,-1.525,-1.5249,-1.5249,-1.5257,-1.5258,-1.5258,0,0,0,0,0,0,0,0,0,0,0,0,0,-1.5241,-1.5234,-1.5251,-1.5248,-1.5248,-1.5258,-1.5258,-1.5258,-1.525,-1.525,-1.5249,-1.5249,-1.5257,-1.5257,-1.5258,-1.5272,0,0,-1.526,-1.5261,0,0,0,0,0,0,0,0,-1.5241,-1.5242,-1.5249,-1.5248,-1.5248,-1.5253,-1.5255,-1.5263,-1.525,-1.5249,-1.5249,-1.5249,-1.5256,-1.5257,-1.5259,-1.5272,-1.5273,-1.5261,-1.5261,-1.5261,-1.5262,0,0,0,0,0,0,0,-1.524,-1.5241,-1.5254,-1.5249,-1.5248,-1.5247,-1.5248,-1.5256,-1.5255,-1.5249,-1.5249,-1.525,-1.5256,-1.5258,-1.5259,-1.5273,-1.5261,-1.5261,-1.5262,-1.5262,-1.5299,-1.53,0,0,0,0,0,0,-1.524,-1.5241,-1.5254,-1.5254,-1.5243,-1.5248,-1.5249,-1.5252,-1.5255,-1.5255,-1.525,-1.5249,-1.5257,-1.5258,-1.526,-1.5276,-1.5261,-1.5262,-1.5262,-1.5299,-1.5299,-1.53,0,0,0,0,0,0,-1.5239,-1.5241,-1.5253,-1.5247,-1.5249,-1.5249,-1.5252,-1.5252,-1.5255,-1.5256,-1.5256,-1.5253,-1.5257,-1.5258,-1.5269,-1.5276,-1.5262,-1.5263,-1.5298,-1.5299,-1.53,-1.531,0,0,0,0,0,0,-1.5239,-1.5241,-1.5245,-1.5248,-1.5249,-1.5262,-1.5253,-1.5253,-1.5256,-1.5255,-1.5258,-1.5258,-1.5257,-1.5268,-1.527,-1.5277,-1.5264,-1.5297,-1.5298,-1.5299,-1.5309,-1.5311,-1.5312,0,0,0,0,0,-1.5238,-1.5248,-1.5246,-1.5247,-1.5255,-1.5263,-1.5264,-1.5261,-1.5256,-1.5261,-1.5262,-1.5258,-1.5276,-1.5269,-1.5271,-1.5279,-1.5297,-1.5298,-1.5299,-1.5308,-1.531,-1.5312,0,0,0,0,0,0,-1.5246,-1.5248,-1.5245,-1.5256,-1.5259,-1.5261,-1.5267,-1.5264,-1.5269,-1.5268,-1.5266,-1.5267,-1.5278,-1.528,-1.5273,-1.5293,-1.5286,-1.5287,-1.5291,-1.5294,-1.5296,-1.5294,-1.5264,0,0,0,0,0,-1.5249,-1.5255,-1.5256,-1.5265,-1.5267,-1.5267,-1.527,-1.5269,-1.5272,-1.5273,-1.5275,-1.5279,-1.5286,-1.529,-1.5296,-1.531,-1.5311,-1.5316,-1.5318,-1.5319,-1.5321,-1.5329,-1.5331,-1.5304,-1.5304,-1.5304,0,0,-1.5255,-1.5257,-1.526,-1.5267,-1.5269,-1.5276,-1.5268,-1.5275,-1.528,-1.5275,-1.5285,-1.5287,-1.5291,-1.5303,-1.5309,-1.5305,-1.5329,-1.5321,-1.5322,-1.5322,-1.533,-1.5333,-1.5335,-1.5305,-1.5305,-1.5305,0,0,-1.5269,-1.5271,-1.5279,-1.5282,-1.5286,-1.5286,-1.5288,-1.5291,-1.5292,-1.5302,-1.5298,-1.5305,-1.5316,-1.532,-1.5323,-1.5342,-1.5338,-1.5344,-1.5353,-1.5361,-1.5364,-1.5365,-1.5372,-1.5374,-1.5345,-1.5345,-1.5345,0,-1.5276,-1.5285,-1.5283,-1.5291,-1.5294,-1.529,-1.5299,-1.5302,-1.5308,-1.5311,-1.5307,-1.5322,-1.5325,-1.5338,-1.5343,-1.5346,-1.5349,-1.5343,-1.5363,-1.5365,-1.5367,-1.5373,-1.5376,-1.5346,-1.5346,-1.5346,-1.5346,0,-1.5294,-1.53,-1.5306,-1.5312,-1.5316,-1.5325,-1.5325,-1.533,-1.5329,-1.533,-1.5342,-1.5345,-1.5352,-1.5356,-1.5355,-1.537,-1.5367,-1.5363,-1.5355,-1.537,-1.5376,-1.5378,-1.5347,-1.5347,-1.5346,-1.5346,0,0,-1.531,-1.5317,-1.5319,-1.5322,-1.5327,-1.5332,-1.5342,-1.5348,-1.5353,-1.5358,-1.5366,-1.5376,-1.5373,-1.5377,-1.5377,-1.5384,-1.5399,-1.5379,-1.538,-1.5383,-1.5417,-1.5419,-1.5422,-1.5398,-1.5398,-1.5398,-1.5416,0,-1.5324,-1.5339,-1.5339,-1.5352,-1.5359,-1.5356,-1.5364,-1.5369,-1.5371,-1.5378,-1.538,-1.5388,-1.5383,-1.5386,-1.5393,-1.5395,-1.5406,-1.5394,-1.5405,-1.5405,-1.5403,-1.5425,-1.5427,-1.5443,-1.5419,-1.5419,-1.5419,0,-1.5342,-1.5347,-1.5362,-1.5367,-1.537,-1.5377,-1.5384,-1.539,-1.5396,-1.5397,-1.5403,-1.5402,-1.5412,-1.5406,-1.542,-1.5413,-1.5418,-1.542,-1.5421,-1.542,-1.5412,-1.5425,-1.5448,-1.5451,-1.5423,-1.5423,-1.5422,0,-1.5352,-1.5364,-1.5374,-1.5377,-1.5383,-1.5389,-1.5392,-1.5397,-1.5402,-1.5409,-1.5412,-1.5421,-1.5425,-1.5432,-1.5434,-1.5429,-1.5449,-1.5442,-1.5451,-1.5451,-1.5453,-1.5453,-1.5478,-1.5458,-1.5458,-1.5458,-1.5458,0,-1.5367,-1.5376,-1.5379,-1.5385,-1.5395,-1.5396,-1.5407,-1.541,-1.5415,-1.5423,-1.5422,-1.5429,-1.5432,-1.544,-1.5442,-1.5454,-1.5456,-1.5458,-1.5458,-1.5457,-1.5457,-1.546,-1.5458,-1.5459,-1.5459,-1.5459,-1.5458,0,-1.538,-1.5382,-1.5393,-1.5399,-1.5401,-1.5408,-1.5414,-1.5421,-1.5423,-1.5433,-1.5435,-1.544,-1.545,-1.5453,-1.5465,-1.5466,-1.548,-1.548,-1.5478,-1.5478,-1.5486,-1.5485,-1.5512,-1.5516,-1.5495,-1.5495,-1.5495,0,-1.5389,-1.5395,-1.5402,-1.5407,-1.5411,-1.5418,-1.5424,-1.5426,-1.5431,-1.544,-1.5446,-1.5455,-1.5463,-1.5479,-1.5484,-1.5494,-1.5493,-1.5502,-1.5494,-1.5494,-1.5493,-1.5492,-1.5493,-1.5503,-1.5503,-1.5503,-1.5503,0,-1.5404,-1.5405,-1.5412,-1.542,-1.5426,-1.5433,-1.5439,-1.5443,-1.5447,-1.5453,-1.5463,-1.5469,-1.5482,-1.5492,-1.5502,-1.5506,-1.5506,-1.5506,-1.5509,-1.5507,-1.5506,-1.5506,-1.5481,-1.5505,-1.5505,-1.5505,-1.5505,-1.5505,-1.5415,-1.5421,-1.5427,-1.5435,-1.5441,-1.5447,-1.5453,-1.5458,-1.5466,-1.5476,-1.5477,-1.5488,-1.5496,-1.5509,-1.5515,-1.5524,-1.5522,-1.5525,-1.5526,-1.5526,-1.5527,-1.5505,-1.5526,-1.5526,-1.5526,-1.5526,-1.5526,0,-1.543,-1.5434,-1.5442,-1.5451,-1.5458,-1.5457,-1.5464,-1.547,-1.548,-1.5487,-1.5495,-1.5507,-1.5517,-1.5524,-1.5535,-1.5541,-1.5541,-1.5544,-1.5543,-1.5544,-1.5529,-1.5525,-1.5543,-1.5543,-1.5543,-1.5543,-1.5543,-1.5543,-1.5438,-1.5449,-1.5451,-1.5465,-1.547,-1.548,-1.5484,-1.5491,-1.5496,-1.551,-1.5518,-1.5522,-1.553,-1.5541,-1.5551,-1.5553,-1.5557,-1.556,-1.5561,-1.5547,-1.5545,-1.5543,-1.554,-1.5561,-1.5561,-1.5576,-1.5576,-1.5576]},{"header":{"parameterUnit":"m.s-1","parameterCategory":1,"la1":30.2991,"la2":30.254,"lo1":-89.0895,"lo2":-89.0444,"dy":0.0017,"dx":0.0017,"nx":28,"ny":28,"refTime":"2023-10-16T21:00:00:Z","depth":0,"parameterNumber":3,"parameterNumberName":"V-component_of_WINDS"},"data":[0,0,0,0,0,0,0,0,0,0,0,0,0,0,0,0,0,0,0,0,0,0,0,0,0,0,0,0,0,0,0,0,0,0,0,0,0,0,0,0,0,0,0,0,0,0,0,0,0,0,0,0,0,0,0,0,0,0,2.4353,2.4352,0,2.4296,2.4296,2.4295,2.4309,2.431,2.4312,2.4313,2.4249,2.4246,2.4243,0,0,0,0,0,0,0,0,0,0,0,0,0,2.4468,2.4466,2.4353,2.4352,2.4352,2.4296,2.4296,2.4295,2.4309,2.4311,2.4312,2.4313,2.425,2.4247,2.4243,0,0,0,0,0,0,0,0,0,0,0,0,0,2.4415,2.4465,2.4353,2.4352,2.4352,2.4297,2.4296,2.4295,2.4309,2.4311,2.4312,2.4314,2.4251,2.4247,2.4243,2.4183,0,0,2.423,2.4228,0,0,0,0,0,0,0,0,2.4418,2.4411,2.4353,2.4352,2.4351,2.4312,2.4313,2.4257,2.4308,2.4325,2.4313,2.4315,2.4268,2.4263,2.4248,2.418,2.4178,2.423,2.4227,2.4226,2.4224,0,0,0,0,0,0,0,2.4422,2.4413,2.433,2.4352,2.4351,2.4353,2.4347,2.4302,2.4287,2.4324,2.4324,2.4318,2.4268,2.4252,2.4247,2.4177,2.423,2.4226,2.4224,2.4222,2.4057,2.4055,0,0,0,0,0,0,2.4427,2.4416,2.4332,2.4329,2.439,2.4349,2.4343,2.4323,2.4288,2.4284,2.4317,2.4319,2.4258,2.4251,2.4244,2.4172,2.4226,2.4222,2.4219,2.4059,2.4056,2.4054,0,0,0,0,0,0,2.4429,2.4419,2.4334,2.4373,2.4362,2.4346,2.4322,2.4321,2.4305,2.4283,2.428,2.4303,2.4259,2.425,2.4199,2.417,2.422,2.4216,2.4061,2.4058,2.4055,2.4027,0,0,0,0,0,0,2.4433,2.442,2.4399,2.4372,2.436,2.4291,2.4321,2.4318,2.4298,2.4301,2.427,2.4266,2.426,2.4205,2.4195,2.4165,2.4213,2.4063,2.4059,2.4056,2.403,2.4023,2.4018,0,0,0,0,0,2.4437,2.4392,2.4397,2.4387,2.4333,2.429,2.4282,2.4278,2.4296,2.4273,2.4259,2.4267,2.4175,2.4199,2.4188,2.4157,2.4065,2.4061,2.4056,2.4033,2.4025,2.4018,0,0,0,0,0,0,2.4413,2.4388,2.4394,2.434,2.4317,2.4292,2.4263,2.4269,2.4239,2.4242,2.4236,2.4229,2.4176,2.4162,2.4189,2.4097,2.4122,2.4116,2.4109,2.4101,2.4094,2.4098,2.4209,0,0,0,0,0,2.4402,2.437,2.435,2.4304,2.4292,2.428,2.426,2.4259,2.4234,2.4224,2.4206,2.418,2.4145,2.4122,2.4089,2.4029,2.4021,2.4002,2.3995,2.399,2.3984,2.395,2.394,2.404,2.404,2.404,0,0,2.4378,2.436,2.434,2.4298,2.4281,2.4246,2.4271,2.4234,2.4208,2.4218,2.4168,2.4154,2.4125,2.4068,2.4042,2.4054,2.3955,2.3985,2.3981,2.3977,2.3944,2.3935,2.3926,2.4037,2.4038,2.4038,0,0,2.4316,2.43,2.426,2.4242,2.4215,2.4207,2.4198,2.4172,2.4164,2.4114,2.4121,2.4089,2.403,2.4008,2.3989,2.392,2.3925,2.3909,2.3875,2.3842,2.3834,2.3827,2.3801,2.3792,2.3903,2.3903,2.3903,0,2.4288,2.4239,2.4238,2.42,2.4181,2.4191,2.4149,2.4131,2.4093,2.4079,2.4094,2.4019,2.4,2.3938,2.3922,2.3906,2.3894,2.3912,2.3836,2.3829,2.3822,2.3797,2.3788,2.3901,2.3902,2.3902,2.3902,0,2.4206,2.4171,2.4142,2.4108,2.4085,2.4045,2.4037,2.4014,2.4015,2.4005,2.3954,2.3931,2.3894,2.3879,2.3879,2.3817,2.3825,2.3838,2.3863,2.3811,2.3787,2.3778,2.3899,2.3899,2.39,2.39,0,0,2.4126,2.4093,2.4082,2.4067,2.4038,2.401,2.3971,2.3936,2.3915,2.389,2.3855,2.3805,2.3816,2.3795,2.3793,2.3764,2.3709,2.378,2.3779,2.3766,2.3637,2.3627,2.3616,2.3713,2.3711,2.371,2.364,0,2.4061,2.3993,2.3991,2.3928,2.3895,2.3904,2.3869,2.3847,2.3837,2.3806,2.3794,2.3758,2.3777,2.3764,2.3736,2.3721,2.3682,2.3727,2.3678,2.3677,2.3684,2.3604,2.3593,2.3528,2.363,2.3629,2.3628,0,2.3976,2.3949,2.3883,2.3859,2.3845,2.3814,2.3782,2.3753,2.3727,2.3722,2.3699,2.37,2.3658,2.3686,2.3626,2.3656,2.3636,2.3626,2.3623,2.3617,2.3648,2.3594,2.3507,2.3497,2.3613,2.3615,2.3616,0,2.3923,2.387,2.3824,2.3811,2.3782,2.376,2.3746,2.3723,2.3702,2.3673,2.3659,2.3625,2.3605,2.3578,2.357,2.3591,2.351,2.3537,2.3502,2.3502,2.3483,2.3484,2.339,2.3473,2.3473,2.3473,2.3474,0,2.3849,2.3808,2.38,2.3771,2.3725,2.3723,2.3676,2.3664,2.3643,2.3611,2.3616,2.3586,2.3578,2.3545,2.3538,2.3489,2.348,2.3473,2.3471,2.3472,2.3472,2.3458,2.3461,2.3471,2.3471,2.3472,2.3472,0,2.3781,2.3775,2.3724,2.3702,2.3696,2.3662,2.3642,2.3614,2.3605,2.3564,2.3554,2.3539,2.3501,2.3491,2.3444,2.344,2.3381,2.3384,2.339,2.339,2.3355,2.3358,2.3247,2.3231,2.3326,2.3325,2.3324,0,2.3734,2.3703,2.3678,2.3658,2.3644,2.3611,2.359,2.3587,2.3564,2.3533,2.3508,2.3471,2.3441,2.3379,2.3362,2.3327,2.3328,2.3292,2.3323,2.3324,2.3326,2.3327,2.3323,2.3285,2.3284,2.3283,2.3283,0,2.3651,2.3649,2.362,2.3589,2.3565,2.354,2.3516,2.3499,2.3491,2.3466,2.3428,2.3405,2.3358,2.332,2.3285,2.3269,2.3273,2.3274,2.3263,2.3262,2.3267,2.3263,2.3373,2.3276,2.3276,2.3277,2.3277,2.3277,2.3591,2.3564,2.3542,2.3509,2.3491,2.3469,2.3441,2.3429,2.3398,2.3361,2.3361,2.3319,2.3293,2.3246,2.3228,2.3194,2.3205,2.319,2.3186,2.3182,2.3179,2.3274,2.3188,2.3188,2.3188,2.3188,2.3188,0,2.3507,2.3494,2.3464,2.3431,2.3404,2.3414,2.3388,2.3365,2.3329,2.3306,2.3277,2.3232,2.3196,2.3177,2.3141,2.3117,2.3118,2.3107,2.3108,2.3104,2.3172,2.3184,2.3107,2.3107,2.3107,2.3107,2.3107,2.3107,2.346,2.3414,2.341,2.3354,2.3341,2.3301,2.3286,2.3264,2.3246,2.3197,2.3167,2.3157,2.3135,2.3097,2.3063,2.3058,2.3044,2.3031,2.3028,2.3091,2.3099,2.3107,2.3118,2.3029,2.3029,2.2962,2.2962,2.2961]}]]